{"data":{"norad_id":40617,"intl_designator":"2015-023A","name":"TURKMENALEM52E/MONACOSAT","alt_names":[],"object_type":"PAYLOAD","status":"ACTIVE","operator":null,"country":"TMMC","launch_date":"2015-04-27","launch_site_code":"AFETR","launch_vehicle":null,"mission":null,"orbit_class":"UNKNOWN","rcs_meters":8.9433,"size_class":null,"mass_kg":null,"dimensions":null,"purposes":["comms"],"wikipedia_slug":null,"has_3d_model":false,"image_url":null,"decayed_at":null,"tle_current":{"epoch":"2026-09-20T01:46:23.179296Z","epoch_age_seconds":58845,"freshness":"FRESH","line1":"1 40617U 15023A   26263.07387939  .00000100  00000+0  00000+0 0  9993","line2":"2 40617   0.0118 121.4167 0003029  51.3804 264.8122  1.00270744 41798","mean_motion":1.00270744,"eccentricity":0.0003029,"inclination_deg":0.0118,"raan_deg":121.4167,"arg_perigee_deg":51.3804,"mean_anomaly_deg":264.8122,"bstar":0,"rev_number":4179,"period_min":1436.1118134318,"perigee_km":35774.115008098,"apogee_km":35799.658579512,"semimajor_km":42165.023793805,"source":"CELESTRAK","updated_at":"2026-09-20T09:00:35.216685Z"}}}